Theta_e
302 302 302 302 301 298 298 298 297 298 299 299 300 300 300 301 301 301 301 301 301 299 300 301 302 305 305 303 302 301 300 298 303 306 305 305 307 309 309 310 311 311 310 308 310 311 309 310 312 309 308 310 311 311 309 312 318 318 319 321 322 322 322 322 322 323 324 324 324 321 321 322 321 318 317 317 317 317 317 318 318 318 318 318 320 320 321 321
301 299 298 298 297 296 299 299 297 297 297 298 299 299 299 300 301 300 301 301 300 299 301 302 304 306 304 302 302 302 299 300 305 306 306 306 306 308 309 310 311 311 310 310 311 312 311 312 312 309 310 313 312 313 311 313 318 318 318 320 321 322 322 322 322 323 324 323 323 321 321 322 321 320 319 319 319 319 319 319 318 319 319 318 319 319 319 320
301 299 298 297 296 296 297 297 296 297 297 296 297 298 299 300 300 300 300 300 299 299 301 303 305 306 304 302 302 301 298 301 306 305 306 307 306 308 309 310 311 310 311 311 312 313 313 311 309 309 311 313 314 315 314 315 318 318 319 319 320 321 321 321 322 324 323 323 324 321 321 322 320 320 320 320 321 321 320 320 320 321 322 321 320 319 320 320
299 300 299 297 297 298 298 298 296 296 297 296 296 296 297 298 299 300 300 300 299 299 301 304 306 305 302 302 302 301 298 302 306 304 305 307 306 308 309 310 310 310 311 311 313 314 313 311 309 309 311 313 316 318 316 316 317 318 319 317 319 320 320 321 321 323 322 322 323 322 322 322 320 319 320 321 321 322 321 321 322 323 323 323 322 320 320 320
300 301 300 298 298 298 299 299 296 296 296 296 298 298 297 297 298 299 300 300 299 299 302 304 304 302 302 303 302 301 299 302 305 304 305 306 307 307 308 309 309 310 311 311 313 313 312 311 310 311 312 312 316 317 317 318 318 318 318 318 320 319 319 320 319 321 320 321 322 321 321 321 320 319 319 320 321 321 321 321 322 322 322 323 322 320 320 321
302 301 299 300 300 300 299 297 296 296 296 296 299 301 299 297 297 299 299 300 299 299 302 303 301 301 303 303 303 302 301 303 304 303 304 305 306 307 308 309 309 310 311 312 313 313 312 311 310 312 313 313 315 316 317 319 318 318 318 318 319 319 319 319 319 319 318 320 322 321 320 319 319 319 318 319 320 319 319 320 321 322 322 323 323 321 321 322
302 300 301 301 300 300 298 296 296 296 296 296 296 298 297 296 297 299 299 300 299 299 302 301 299 302 303 303 303 303 303 305 304 303 303 303 305 306 308 309 309 311 312 312 313 313 312 311 311 313 313 312 316 317 316 318 317 318 318 318 318 319 319 319 319 319 318 319 320 319 318 319 319 319 318 318 319 319 319 320 320 322 323 323 323 323 324 324
300 300 301 300 297 297 296 296 297 296 296 295 295 296 297 298 299 299 299 300 299 299 301 300 299 302 303 301 302 304 304 303 303 303 302 303 305 305 306 308 309 310 312 313 313 313 311 312 312 311 312 313 316 317 315 316 317 317 317 317 319 318 318 319 320 319 319 318 318 319 319 318 318 318 318 316 316 319 320 320 319 320 322 323 324 324 325 326
301 300 299 297 296 296 296 296 296 296 296 296 297 298 298 299 299 299 299 299 299 299 300 299 299 302 303 301 302 304 303 302 303 303 302 302 304 305 305 307 309 309 311 312 312 313 312 313 313 312 313 314 315 315 315 316 316 317 317 318 319 317 317 319 320 320 320 319 318 320 319 317 317 318 317 314 315 318 319 319 319 320 320 322 324 324 324 325
301 299 296 295 296 296 296 297 296 297 298 298 299 299 299 299 299 300 300 300 300 300 300 299 300 302 302 301 302 303 302 302 302 302 302 301 303 306 305 305 307 308 310 311 311 311 310 311 313 313 314 314 314 314 315 316 316 316 317 318 316 315 315 315 319 321 320 320 319 319 319 318 317 317 315 313 314 316 317 317 319 320 319 319 322 322 322 322
301 298 296 296 296 297 297 297 297 298 299 299 299 300 300 300 301 301 301 301 301 301 301 300 301 302 302 302 303 304 303 303 303 302 301 300 303 306 306 305 306 307 308 310 310 309 307 309 311 311 312 313 314 314 315 315 315 316 317 316 313 314 314 313 316 318 319 320 319 318 319 318 316 314 312 312 313 314 315 315 315 316 316 316 317 318 319 318
301 297 296 297 297 297 297 298 298 299 299 300 301 301 302 301 301 302 301 301 301 301 301 301 301 301 302 302 303 304 303 303 303 303 301 301 304 306 306 305 305 306 307 309 310 309 307 308 311 313 312 313 312 312 314 313 314 315 316 315 314 314 314 313 313 315 316 318 318 318 318 319 316 312 311 311 313 314 314 314 314 314 314 314 315 316 317 317
299 297 296 297 297 297 298 299 299 299 300 302 302 302 302 302 302 302 302 301 301 301 301 301 301 302 302 303 303 303 303 303 303 303 302 302 304 305 305 306 305 306 307 309 309 309 309 307 310 314 313 313 313 312 312 312 313 314 314 314 315 315 314 312 312 313 315 315 316 318 319 318 315 312 311 311 312 313 314 313 313 313 313 313 314 314 314 314
297 297 297 298 298 298 298 299 299 300 302 302 302 302 302 302 302 302 302 302 302 302 302 302 302 303 303 303 303 303 303 303 303 304 303 303 304 304 305 305 305 305 307 309 309 309 309 307 309 313 313 314 314 312 312 312 312 313 312 314 315 315 313 311 311 314 315 314 315 317 319 315 312 311 311 311 312 312 312 312 312 312 312 312 312 312 312 312
296 297 298 298 298 298 298 298 299 301 302 301 301 301 301 301 302 302 302 302 302 301 302 302 303 303 304 304 303 303 303 303 303 303 303 304 305 305 305 305 305 305 307 309 309 309 308 307 310 312 313 313 313 312 312 311 311 311 311 312 314 314 312 310 310 312 313 314 315 318 318 314 311 311 310 310 311 311 311 311 311 311 311 311 312 312 312 311
296 297 298 299 298 298 298 298 299 301 301 300 300 300 301 301 301 301 301 302 302 301 301 302 302 303 304 303 302 302 302 303 303 303 304 305 306 306 305 305 305 306 308 308 308 308 307 307 309 310 312 312 312 312 311 311 311 311 311 313 314 313 312 310 310 310 311 313 315 316 316 313 311 311 310 310 310 310 310 310 310 310 310 311 311 311 311 310
296 297 298 298 298 298 297 298 299 301 301 300 300 300 300 300 300 300 300 301 301 301 301 301 301 303 303 302 302 302 302 303 302 303 304 304 305 306 305 305 305 307 308 307 307 308 306 307 309 309 311 312 310 311 311 312 311 312 313 313 313 313 312 312 311 310 311 312 313 313 312 311 311 310 309 310 310 310 310 310 310 310 310 309 309 309 309 309
297 297 297 298 298 297 297 297 298 300 301 301 300 300 300 300 299 299 300 300 300 301 301 301 301 302 303 301 301 301 301 302 302 303 304 304 305 305 305 306 307 307 307 306 307 307 307 308 309 309 311 311 309 310 310 312 312 313 314 313 312 312 312 312 311 309 310 312 312 311 311 310 309 309 309 309 309 309 309 309 309 309 309 308 308 308 308 308
297 297 297 297 297 297 297 298 298 298 299 300 301 301 300 300 299 299 299 299 300 300 301 300 300 301 301 301 301 301 302 302 302 303 303 304 305 305 306 307 307 307 307 307 307 307 308 308 309 309 310 311 310 310 311 312 313 313 313 313 313 312 311 310 310 308 308 310 311 311 310 309 307 307 307 308 308 308 308 308 308 308 308 307 307 307 306 306
298 297 297 297 297 297 297 298 299 299 299 300 300 300 300 301 302 300 299 298 298 299 299 299 300 299 300 300 300 301 302 302 302 302 303 304 304 305 306 307 307 307 307 307 307 307 308 308 308 309 308 309 309 309 311 311 311 311 312 312 312 312 310 309 309 308 307 309 310 310 308 307 307 306 306 306 306 306 306 306 306 306 306 306 305 305 305 306
298 298 298 297 297 297 297 298 299 300 300 300 300 300 300 301 302 301 301 299 297 298 299 299 299 299 299 300 300 301 301 302 302 302 303 304 304 305 305 306 306 306 305 305 307 308 308 308 307 306 306 305 305 307 309 310 310 310 311 311 311 311 309 308 308 308 308 309 309 309 308 306 306 305 305 305 304 304 304 304 305 305 305 304 305 305 304 305
297 298 298 298 297 297 297 297 299 299 300 300 300 300 300 300 301 300 301 302 298 297 298 299 299 299 299 299 300 301 301 301 302 302 303 304 304 305 305 306 306 306 306 306 307 307 307 307 306 305 305 304 305 306 308 309 310 310 310 310 310 310 309 308 308 308 309 310 309 308 307 306 305 305 305 304 303 303 303 303 304 304 304 304 304 304 304 304
297 297 298 298 297 297 297 297 298 298 299 300 300 300 300 300 301 300 300 302 300 298 298 298 299 299 299 299 300 301 302 300 301 301 302 303 304 303 305 306 305 305 306 306 306 306 306 306 305 304 304 306 307 308 308 308 309 310 309 309 309 309 309 308 308 308 308 309 309 308 307 307 306 305 304 304 303 303 303 303 303 304 304 304 304 304 304 304
297 297 297 298 298 297 297 297 297 298 299 299 299 299 299 299 300 300 299 300 299 298 298 298 298 299 299 299 299 301 302 300 300 300 301 302 303 303 304 304 305 306 306 306 306 306 306 305 304 305 306 307 308 308 308 308 308 309 309 309 309 308 309 309 308 308 308 309 309 309 309 307 305 305 304 304 303 303 303 303 303 304 304 304 304 304 304 304
297 297 297 298 298 298 298 297 298 298 299 299 299 299 299 299 300 301 299 299 298 297 298 299 299 299 298 299 299 300 302 301 299 300 301 301 302 303 303 303 304 305 305 307 306 306 305 303 304 306 307 308 308 307 307 308 308 308 308 308 309 308 309 309 308 308 308 309 308 308 310 308 305 304 304 303 303 303 304 304 304 304 304 304 304 304 304 303
297 297 297 297 298 298 298 298 298 299 299 299 299 299 299 299 300 300 298 297 297 296 298 299 299 299 298 298 299 300 302 301 300 300 301 301 301 302 303 303 303 304 304 305 306 305 305 304 304 307 308 308 308 307 306 307 308 309 308 307 307 309 310 309 308 308 309 309 308 308 311 309 305 304 304 303 303 303 303 304 304 304 304 304 304 303 303 303
297 297 298 298 298 298 298 298 298 298 299 299 298 299 299 299 299 300 299 297 297 296 298 298 298 299 298 298 298 299 300 300 300 300 300 301 301 302 303 302 303 303 302 303 305 304 304 304 304 306 308 308 307 307 306 306 309 309 307 307 308 310 312 311 309 308 309 309 309 309 310 309 306 305 303 302 303 303 303 303 304 304 303 303 303 303 303 302
298 298 298 298 298 298 298 298 298 298 299 299 298 299 299 299 299 299 299 297 295 296 298 298 298 298 297 298 298 298 298 298 300 300 299 301 301 302 302 301 302 302 303 304 304 304 304 304 303 304 306 307 306 306 304 305 308 308 306 307 309 310 312 311 309 308 309 309 309 309 309 308 305 304 302 302 302 302 302 303 303 303 303 303 303 302 302 302
298 298 298 298 298 298 298 298 298 298 298 298 298 299 298 299 300 299 298 296 295 296 297 298 298 297 297 299 299 298 298 298 299 299 299 301 301 301 301 300 301 301 302 303 303 303 303 303 303 303 304 304 304 304 304 304 307 306 305 307 308 308 309 309 308 308 308 310 308 307 308 307 304 302 301 302 302 302 302 302 303 303 302 302 302 302 302 301
298 298 298 298 298 297 298 298 298 298 298 298 299 299 298 298 299 299 297 296 295 296 297 298 298 297 297 299 299 299 299 298 298 299 300 300 300 300 300 300 301 302 302 302 301 302 302 302 303 302 301 302 302 304 304 303 305 305 306 308 307 307 308 307 307 307 308 308 307 306 307 307 305 301 300 301 301 301 302 302 303 303 302 302 302 301 301 301
298 298 297 297 297 297 297 298 298 298 298 298 299 299 299 298 297 298 297 296 295 296 297 297 298 298 297 297 298 298 299 299 298 299 299 300 300 300 300 300 301 302 302 301 301 302 301 301 302 301 300 301 303 305 305 305 306 306 307 307 306 306 306 305 305 306 308 307 305 305 304 305 304 302 300 300 301 301 302 302 302 303 303 302 302 301 301 300
298 298 297 297 297 297 297 297 298 298 298 298 298 298 299 298 296 296 296 295 295 296 297 297 297 297 296 297 297 297 298 298 298 298 298 299 299 299 299 299 299 301 301 301 301 301 300 300 301 301 301 300 303 306 306 306 307 306 306 306 305 305 305 304 304 304 306 306 304 304 304 303 302 300 300 300 300 301 302 302 302 303 303 302 302 301 300 300
298 297 297 297 297 297 298 297 298 298 298 298 298 298 299 298 295 294 295 295 295 296 296 296 296 296 296 297 297 297 297 297 297 298 298 299 299 299 299 299 299 300 300 300 301 300 300 300 300 301 301 300 301 305 306 306 305 305 306 305 303 302 303 303 301 301 304 306 304 303 304 303 301 300 299 300 301 301 301 302 302 302 302 302 302 301 300 299
297 297 297 297 297 297 298 298 298 298 298 298 298 300 300 296 294 294 295 295 296 296 296 296 295 296 297 297 296 297 297 297 297 297 298 299 299 298 299 299 299 299 300 299 299 299 300 300 300 300 300 299 300 301 302 303 304 305 305 305 305 304 303 303 302 303 305 306 304 303 304 304 301 300 299 300 301 301 301 301 302 302 302 302 302 301 300 299
298 297 297 297 297 297 298 298 298 298 298 298 299 299 298 294 292 294 295 296 296 296 297 296 295 296 297 296 296 297 297 297 297 297 297 298 298 298 298 298 298 298 299 299 298 299 299 299 299 299 299 299 299 299 300 301 304 304 304 306 307 305 305 304 304 305 305 305 305 305 304 303 300 300 300 300 301 301 301 301 301 301 302 302 302 301 300 299
298 298 297 297 297 297 298 298 298 298 298 299 299 297 295 294 293 294 296 297 297 296 296 296 295 296 298 297 297 298 297 297 297 297 297 296 297 298 298 298 298 298 298 299 298 299 300 299 299 299 299 299 298 299 300 301 304 304 304 305 304 303 304 305 304 303 304 305 305 304 304 301 300 301 300 300 301 300 301 301 301 301 301 301 302 301 300 299
298 298 297 297 297 298 298 298 298 299 298 299 299 295 293 294 296 296 296 296 296 295 296 296 296 296 297 297 297 298 298 298 297 297 297 296 296 297 297 298 299 298 297 298 299 299 299 299 298 298 299 299 298 299 301 301 302 304 303 303 302 302 302 303 303 302 303 305 303 302 303 301 302 303 301 300 300 300 300 300 300 300 300 300 301 301 300 298
298 298 297 297 297 298 298 298 298 298 298 299 297 295 293 294 295 295 295 295 295 296 296 297 297 296 297 297 297 297 297 298 297 295 296 297 296 297 297 297 299 299 298 298 299 298 298 299 298 298 299 299 299 300 300 300 301 302 301 300 302 303 303 303 303 302 302 303 301 301 301 300 301 301 300 300 300 299 299 300 300 299 299 299 300 301 300 298
298 298 297 297 298 298 298 298 298 298 299 298 296 295 293 294 295 294 295 295 295 296 296 296 296 296 296 296 297 297 296 297 297 296 296 297 297 297 297 297 298 299 298 298 298 297 297 298 298 299 299 299 300 300 300 300 300 301 300 300 301 302 303 302 301 301 301 300 300 300 300 300 300 299 299 300 299 299 299 299 299 298 297 297 299 300 300 297
298 298 297 297 298 298 297 298 298 299 298 294 294 293 291 293 296 295 295 295 295 296 297 295 295 296 296 296 296 296 296 296 297 296 297 297 297 297 297 296 296 298 299 298 298 297 297 297 298 299 300 300 299 298 298 299 300 300 300 300 300 300 300 300 300 300 300 299 299 299 298 300 299 298 299 299 299 299 299 299 299 297 296 296 297 300 300 297
298 298 298 297 298 298 298 299 297 294 293 292 292 291 290 294 297 295 295 296 295 296 297 296 296 296 296 296 296 295 296 296 296 296 297 297 297 298 297 296 296 297 299 298 298 298 297 297 299 300 300 300 299 297 296 297 298 299 299 299 299 299 298 299 299 298 298 298 298 297 298 300 299 298 299 298 299 300 299 299 299 297 296 295 296 299 299 296
298 299 298 296 297 298 298 299 293 290 293 294 293 293 294 296 296 296 296 296 296 296 296 296 296 296 296 296 296 295 295 296 296 296 296 296 297 297 296 296 297 298 298 297 297 297 295 296 298 299 298 298 297 296 294 294 297 299 298 298 298 298 298 299 298 298 298 297 297 297 298 299 299 298 299 299 299 299 299 299 299 297 295 294 295 298 298 295
298 298 297 296 297 298 299 299 293 292 293 292 291 293 294 295 296 296 296 296 297 297 296 296 296 296 296 296 296 296 295 295 295 296 296 295 296 296 296 296 298 298 297 297 297 297 295 295 296 297 297 297 297 296 293 293 296 298 298 298 298 298 298 299 298 298 298 297 297 297 298 298 299 298 298 299 298 298 298 298 298 297 295 293 294 297 297 294
297 296 296 297 297 298 300 299 296 294 293 292 293 294 295 295 296 297 296 296 297 297 297 297 295 296 296 296 296 296 296 295 295 296 296 295 296 296 295 296 298 298 297 297 297 297 296 295 295 296 296 297 297 297 296 295 297 298 297 297 298 298 297 298 297 297 298 297 297 297 298 299 299 297 298 299 298 297 297 298 298 297 295 293 294 296 295 292
297 297 296 296 297 298 298 297 296 295 294 296 297 296 296 296 296 296 296 296 296 296 296 296 296 296 295 294 295 297 297 296 294 295 295 295 296 296 295 295 297 297 297 296 296 297 297 295 295 295 295 295 295 296 296 297 298 298 297 296 297 297 297 297 297 297 297 297 296 297 298 299 298 297 298 298 297 297 297 297 298 297 294 292 293 295 294 291
297 298 297 297 297 297 296 295 296 296 295 297 296 294 295 296 296 296 296 296 296 296 296 296 295 296 295 295 296 297 296 295 294 295 295 295 296 295 294 295 295 295 295 295 295 295 295 294 293 294 295 296 296 296 296 297 297 297 297 296 297 297 297 297 297 297 297 297 297 298 298 298 298 297 298 298 297 296 296 297 297 296 293 292 293 295 293 290
297 297 296 297 298 297 296 295 295 294 295 296 295 293 295 296 295 295 296 295 296 296 296 295 294 295 295 295 295 295 294 294 294 295 295 294 295 295 294 295 295 294 294 295 295 295 295 295 293 293 296 296 296 296 296 296 297 296 297 297 296 297 296 296 297 297 296 297 298 298 297 298 298 298 298 297 296 296 296 297 297 295 292 291 292 294 293 290
298 295 293 295 296 296 295 295 294 292 293 294 293 292 295 295 295 296 296 295 295 296 296 295 294 294 295 295 294 294 295 295 294 295 295 294 294 294 294 295 294 293 293 294 295 294 295 296 294 294 296 295 295 295 295 295 296 296 297 297 297 296 296 296 297 296 296 297 298 298 297 297 298 298 297 297 296 295 295 296 295 293 292 291 292 294 292 289
296 295 293 294 294 292 293 294 293 293 293 293 293 295 296 297 296 295 295 295 295 295 295 295 295 294 293 292 293 294 294 294 293 294 295 294 293 293 294 295 295 293 293 294 293 293 294 296 295 294 295 294 294 295 294 295 296 296 296 296 297 297 296 296 296 296 296 297 297 297 297 297 298 298 298 297 295 294 295 295 294 292 291 291 291 293 291 289
296 296 295 295 294 292 292 293 294 295 295 294 295 296 295 297 297 295 294 295 294 294 295 295 295 293 290 290 293 293 294 294 293 294 294 294 293 293 293 294 294 293 293 293 293 292 294 295 295 294 295 295 295 295 295 295 296 297 296 296 296 296 295 295 295 295 296 296 296 296 296 297 297 298 297 295 294 294 295 295 293 292 291 291 291 292 290 289
296 296 296 297 296 293 294 294 293 296 297 295 295 295 294 295 295 294 294 294 294 295 295 294 294 293 290 291 293 293 293 294 294 295 294 294 293 293 293 293 293 293 293 293 293 293 294 294 294 294 297 297 295 295 296 295 294 294 294 294 294 295 294 295 294 295 295 295 295 295 295 297 298 297 296 294 294 294 294 294 292 291 291 290 291 291 290 289
295 296 296 297 296 293 294 294 293 295 296 295 294 295 295 295 294 294 293 294 294 295 294 293 293 292 291 292 293 293 293 293 293 293 293 292 292 292 292 292 292 292 292 292 292 293 295 295 295 296 298 297 295 294 294 293 294 296 295 294 294 295 295 295 295 295 296 296 296 297 298 298 297 296 295 294 294 294 294 293 292 291 290 290 290 290 289 289
Wind_Speed
14 14 16 17 17 15 14 13 11 12 12 12 13 13 13 14 14 15 16 17 19 21 22 21 19 19 20 20 20 21 22 14 3 2 7 11 11 8 7 7 8 10 10 10 9 9 6 5 5 7 7 8 9 9 14 14 14 13 7 9 9 9 9 8 9 6 1 1 4 2 1 3 6 4 2 2 3 1 2 3 3 4 7 6 4 3 2 2
15 15 16 16 16 15 16 15 12 12 12 13 13 13 13 13 14 14 16 17 19 21 22 21 19 19 20 19 20 21 18 7 3 4 7 10 11 6 6 6 7 10 10 8 7 6 5 5 4 6 6 8 9 9 12 13 15 12 6 9 10 9 8 6 9 7 2 2 5 3 2 4 6 5 2 3 4 2 1 1 1 2 5 7 8 9 8 6
16 16 16 15 16 16 15 15 15 13 13 13 14 14 14 14 13 14 16 17 19 21 21 20 19 19 19 19 19 18 13 4 4 9 8 9 10 6 5 5 6 9 8 6 5 4 4 4 4 5 6 8 8 10 11 12 14 11 7 9 9 9 7 5 7 6 3 3 5 3 2 4 5 5 3 3 4 5 5 4 2 3 5 8 10 9 9 8
17 17 17 16 15 15 15 16 15 16 16 15 15 14 14 14 13 13 15 18 20 21 21 19 18 18 18 18 17 15 11 2 5 13 10 9 9 8 7 6 7 9 7 6 5 3 3 4 4 4 6 8 8 9 10 12 11 7 8 8 5 10 7 4 4 3 1 1 4 2 1 3 4 4 3 4 2 5 8 7 7 7 8 10 10 6 6 7
18 18 17 16 16 16 16 16 16 17 17 17 16 15 14 14 13 11 14 17 19 21 20 18 18 17 17 17 15 15 8 1 7 14 11 10 10 9 7 5 8 9 8 6 5 3 3 3 3 3 6 6 8 9 9 11 9 5 5 1 3 9 8 5 4 3 2 1 2 1 1 1 3 3 4 5 4 6 7 7 9 10 11 12 9 4 3 4
19 18 18 17 17 17 17 17 17 18 18 18 16 15 15 14 11 9 14 17 18 21 18 16 17 16 16 16 13 14 7 1 11 15 14 14 12 10 7 4 7 8 7 5 3 3 2 2 3 4 5 5 7 7 5 8 7 5 4 3 4 3 5 7 6 5 2 1 2 3 2 3 2 1 5 8 7 8 8 9 12 13 12 10 8 5 4 4
19 18 18 17 17 18 18 18 18 18 19 18 17 15 15 13 10 10 14 16 18 19 15 14 16 14 14 14 13 14 12 8 15 16 16 17 15 14 9 3 4 4 4 1 1 1 1 1 2 4 4 3 3 3 1 5 6 5 3 4 3 4 5 6 7 8 7 5 5 3 3 4 4 3 6 12 12 10 9 11 14 14 15 13 10 8 7 6
19 18 17 18 18 19 18 18 19 18 18 18 17 16 14 13 11 12 15 16 17 16 14 13 13 12 12 15 14 10 13 15 17 16 16 17 15 14 12 5 1 3 4 3 1 1 1 1 3 4 4 2 1 1 1 5 6 4 4 5 4 5 5 6 6 7 9 7 8 4 4 4 5 3 7 16 18 13 12 13 15 14 14 15 14 11 10 9
19 18 17 19 19 19 19 19 19 18 18 18 17 16 14 13 12 14 15 15 15 13 13 12 10 10 9 15 16 7 12 18 16 16 18 18 15 13 13 9 2 5 6 6 6 4 3 3 2 3 2 3 3 1 1 4 4 3 5 5 5 6 5 6 5 5 7 7 8 7 4 6 6 3 6 19 21 14 14 13 14 15 15 15 15 15 15 14
19 18 18 20 19 19 19 18 18 18 18 17 16 15 14 14 14 15 15 13 13 11 12 10 8 10 8 14 14 7 14 18 14 16 18 18 15 10 9 10 5 4 6 6 10 10 7 6 3 4 4 4 3 2 1 2 2 5 5 6 6 8 8 5 4 5 5 4 5 6 6 8 11 6 4 18 20 16 16 15 13 15 18 19 18 18 18 16
19 18 19 19 18 18 18 17 18 18 17 17 16 15 14 15 14 14 13 12 12 11 11 8 8 9 7 13 13 9 15 17 15 17 16 16 13 8 6 7 7 1 6 6 10 11 10 8 4 4 2 4 4 4 4 2 3 4 6 8 8 9 10 11 5 5 4 4 3 2 6 9 13 8 7 18 17 17 21 23 20 18 19 21 21 20 19 17
17 18 20 19 18 17 17 16 17 17 17 17 16 15 15 15 15 15 14 14 14 13 11 8 10 10 7 11 14 13 17 16 15 16 13 11 9 8 6 4 6 2 3 5 8 8 9 10 5 2 2 4 5 4 4 3 2 2 5 8 8 8 8 13 6 1 1 1 2 6 4 6 10 7 13 18 17 20 27 26 25 24 23 23 23 20 17 14
16 19 20 18 17 16 16 15 16 17 17 17 16 15 15 15 17 19 19 18 16 15 14 10 9 13 9 8 14 18 18 16 16 16 12 9 7 6 6 3 2 2 1 4 6 5 7 10 5 2 3 3 2 3 4 3 2 3 3 5 8 8 6 12 9 4 1 5 2 9 5 4 7 9 16 20 18 21 28 27 25 25 26 27 26 24 22 18
16 18 19 18 17 15 15 14 15 17 18 18 18 18 17 15 15 18 20 21 20 17 13 10 9 11 10 8 15 21 19 16 17 19 15 10 9 5 4 4 2 0 1 4 5 2 5 9 5 3 3 1 2 4 5 3 1 4 4 3 5 6 4 8 11 7 2 6 1 9 4 5 7 11 17 22 20 20 25 25 27 27 26 26 25 25 25 24
16 18 18 18 16 15 14 13 14 16 18 21 22 23 21 18 14 14 14 17 23 24 17 10 8 9 8 9 16 20 20 20 20 22 19 13 10 7 3 4 5 4 3 4 3 2 5 7 5 4 2 1 3 5 6 5 2 1 4 5 4 5 4 3 10 12 3 5 3 5 5 7 8 11 17 23 24 23 26 25 27 28 26 26 25 25 25 27
16 17 18 17 15 15 14 13 13 15 17 21 25 27 27 26 22 18 16 14 17 25 27 17 7 5 8 13 20 24 25 25 24 23 19 12 9 11 6 2 7 7 5 3 0 2 3 4 6 6 4 1 2 4 6 6 4 0 2 5 5 7 7 2 6 14 9 3 7 5 6 6 6 10 18 24 27 29 29 26 26 27 27 26 25 26 27 30
16 16 16 16 15 14 14 12 11 12 13 16 21 24 27 30 30 26 24 22 19 21 29 30 15 1 7 21 27 30 29 27 26 24 19 13 8 10 7 2 7 9 7 4 2 1 2 4 4 4 4 2 1 2 5 5 6 3 2 5 4 5 7 4 3 12 13 3 10 12 10 8 8 12 20 24 29 35 29 24 26 26 27 28 27 28 28 30
15 15 15 15 15 14 14 12 9 7 7 8 11 15 19 24 30 33 30 30 30 24 22 33 28 4 4 26 30 30 28 25 28 27 21 13 8 9 7 4 7 11 7 4 2 3 3 4 3 3 4 3 1 3 4 4 5 6 5 6 6 7 9 8 5 7 10 8 12 13 12 12 13 17 21 22 30 34 27 25 27 26 27 28 29 29 28 30
15 15 14 14 15 15 14 12 9 6 3 3 5 7 8 13 21 31 37 38 34 22 11 22 26 7 8 25 30 29 25 25 31 29 22 14 7 8 9 8 8 9 5 3 4 6 4 4 4 6 6 5 5 3 4 6 7 9 8 8 8 9 9 8 6 4 5 9 12 11 14 16 16 17 18 22 32 33 27 29 29 26 27 28 28 29 30 32
15 14 13 13 14 15 14 13 11 8 6 5 6 6 9 11 11 17 31 38 33 21 14 19 21 14 16 23 28 29 24 27 32 28 24 16 7 8 11 11 9 8 5 1 5 6 4 7 7 6 5 6 7 7 8 9 9 11 10 10 9 9 9 6 6 5 3 5 7 9 19 20 17 16 15 23 33 30 25 26 25 24 25 27 27 29 32 33
14 13 13 12 12 13 13 13 12 12 12 8 8 12 15 12 7 8 16 23 30 27 24 26 25 24 25 24 25 26 23 27 33 30 25 19 11 8 9 9 8 9 5 1 3 5 6 9 7 5 6 6 6 5 5 8 9 10 9 9 8 7 9 5 6 5 1 4 4 10 22 20 16 15 17 25 28 24 23 23 22 23 23 25 26 28 30 32
13 12 12 12 11 12 12 12 11 11 9 5 9 14 16 12 8 8 8 7 21 30 27 28 31 32 32 27 23 22 20 22 29 32 27 23 21 12 9 11 9 7 5 1 5 6 8 9 7 7 5 3 3 2 6 9 8 7 6 7 7 6 7 5 7 6 3 6 9 17 21 15 15 15 18 25 23 19 22 22 21 23 23 25 26 27 29 34
13 12 12 12 11 11 12 12 11 8 5 6 12 15 13 12 9 10 8 2 10 27 30 28 30 34 35 29 22 19 19 18 22 30 29 23 21 15 10 12 12 10 8 6 8 8 9 6 8 7 3 1 7 7 8 10 7 5 4 6 6 4 3 5 6 6 6 5 11 21 19 10 10 13 15 20 21 20 22 23 24 26 24 24 24 25 28 32
13 13 13 12 11 11 11 11 10 9 9 11 14 15 13 12 10 9 7 1 3 20 29 25 24 31 33 28 22 15 14 20 21 27 30 22 16 12 9 8 9 11 9 11 14 11 9 7 7 2 1 5 10 9 8 6 7 8 7 5 5 4 3 5 5 4 6 6 5 14 15 9 9 11 12 13 18 23 24 26 28 28 26 24 25 27 28 29
13 13 13 13 12 11 10 10 11 11 12 14 14 15 13 11 9 7 5 1 1 15 26 23 20 26 33 30 23 10 6 19 26 27 27 23 16 8 5 8 6 8 7 10 15 12 10 9 6 4 8 9 11 9 9 4 5 8 8 6 3 2 4 5 4 4 7 6 2 3 7 7 9 12 12 10 14 20 23 28 28 27 28 27 28 28 28 29
13 13 12 14 13 11 10 10 12 11 10 12 14 14 13 11 8 5 3 1 3 11 19 21 17 20 30 32 28 11 0 13 26 28 25 22 19 9 3 6 5 5 4 4 8 6 7 9 5 7 10 10 11 8 9 8 4 7 5 5 3 0 4 5 5 4 5 6 2 2 5 8 7 11 12 11 14 17 21 25 26 27 28 28 28 27 28 29
13 13 12 13 13 12 11 11 12 12 11 13 14 13 12 11 6 4 2 1 5 9 13 17 15 16 24 28 32 17 1 13 21 26 29 21 20 17 10 7 4 6 2 3 6 4 7 12 11 10 10 9 8 7 8 9 3 6 4 3 3 2 5 5 5 5 3 5 6 7 5 8 7 9 11 12 15 18 20 21 24 27 27 27 27 27 28 28
13 13 13 13 13 12 12 11 13 14 14 14 13 12 10 7 3 2 2 3 5 8 8 13 12 17 25 25 31 20 6 15 14 19 32 24 18 18 14 11 8 11 9 1 8 5 7 13 13 10 9 8 6 5 8 8 2 4 4 2 3 4 6 6 6 6 1 3 8 9 7 6 7 7 8 12 15 18 18 17 20 24 25 26 26 27 27 27
13 13 14 14 14 14 13 13 15 14 14 13 10 9 7 4 2 1 2 2 4 7 8 12 12 19 27 21 25 24 16 17 12 16 31 27 19 14 9 9 8 11 16 14 11 6 5 8 9 10 8 5 5 6 7 6 3 2 2 1 4 4 5 5 5 4 3 5 7 8 7 4 7 8 8 10 14 14 13 13 15 20 23 24 25 26 27 27
12 12 13 14 14 14 13 13 15 13 14 12 4 6 9 6 1 1 4 2 2 7 10 12 11 17 23 15 16 23 17 16 19 21 27 27 29 25 12 9 11 5 11 16 12 6 5 5 6 9 8 5 6 5 4 4 2 1 2 3 6 5 4 4 3 2 4 7 8 9 7 4 6 7 8 8 10 10 9 9 13 18 21 22 23 25 26 28
12 13 14 16 16 16 15 15 16 12 12 11 2 3 8 7 3 3 4 3 3 7 9 8 10 15 17 10 8 16 13 14 22 21 20 21 26 30 18 10 11 6 7 10 8 8 9 9 6 4 10 11 5 3 1 2 1 2 2 3 5 3 3 4 3 2 5 7 6 8 11 11 8 5 7 7 8 9 9 10 12 16 19 21 22 22 24 26
12 14 15 17 17 18 18 17 16 11 10 10 5 2 2 2 4 3 2 6 3 5 6 5 10 12 11 7 7 13 9 10 18 15 11 11 10 16 16 11 9 5 6 6 5 7 8 10 11 5 11 19 9 1 3 4 5 3 2 2 3 2 2 3 3 3 5 6 2 3 8 10 8 5 6 8 8 9 10 10 12 14 16 18 20 21 22 24
12 14 15 16 17 17 18 16 14 10 9 9 6 5 3 2 4 2 3 5 3 4 4 5 10 11 9 7 8 11 6 5 14 13 9 9 7 9 13 17 15 7 5 6 5 7 3 6 16 11 8 18 13 4 4 5 6 5 2 1 1 2 3 3 2 2 4 6 3 4 6 7 6 5 6 6 8 9 9 9 10 12 13 14 17 19 20 23
12 14 14 15 16 16 16 15 12 9 9 10 6 5 7 5 2 1 2 2 1 4 5 6 10 9 5 6 6 9 5 5 10 11 9 10 10 10 11 17 21 11 4 4 4 6 4 5 14 11 6 13 11 6 3 3 3 4 3 3 3 3 2 3 2 3 6 6 4 3 4 6 6 5 3 3 7 9 8 8 9 11 11 12 14 18 20 23
11 13 13 13 13 14 15 13 11 9 7 10 10 6 6 4 1 1 2 4 3 4 7 6 7 6 5 5 4 7 5 5 10 9 8 11 11 11 11 12 19 14 5 4 3 4 5 5 9 7 4 9 9 6 3 3 1 3 2 2 5 4 3 3 4 3 3 5 5 3 3 6 7 7 5 3 5 8 9 8 10 12 13 13 15 18 21 23
9 11 12 12 12 13 14 12 10 8 7 11 11 6 3 2 1 1 3 5 3 6 9 5 4 5 6 5 5 10 7 5 9 8 5 8 9 12 11 7 13 16 8 4 3 2 3 4 7 8 4 9 10 6 5 4 1 1 2 3 3 3 2 3 4 2 1 4 5 3 4 6 5 5 7 6 5 7 9 10 13 15 16 17 17 18 20 22
7 9 13 13 14 15 14 13 9 6 12 17 10 3 1 1 1 1 4 5 3 6 6 3 4 5 4 3 5 12 11 6 8 8 5 4 5 11 13 7 9 14 9 4 2 3 3 3 4 7 6 11 15 7 8 15 8 1 4 3 1 1 1 2 2 2 2 4 4 2 5 4 3 2 6 7 7 9 11 13 16 18 19 18 18 18 18 20
5 8 14 17 17 15 13 14 9 6 15 17 8 4 2 1 1 2 4 4 3 4 4 4 3 4 3 3 4 10 11 7 7 6 4 4 4 8 13 8 9 14 12 7 2 2 4 1 3 6 4 8 14 7 5 15 14 6 4 1 2 2 2 2 2 3 3 3 2 2 4 2 1 1 5 7 9 10 11 13 15 18 19 19 18 18 18 19
4 6 13 17 15 14 16 13 8 12 16 10 3 4 1 2 2 3 4 2 2 3 3 3 3 3 4 4 5 7 7 7 7 4 3 5 3 6 12 9 9 15 14 8 4 1 3 1 2 6 6 5 7 7 4 8 9 5 3 2 3 3 3 3 2 1 1 3 2 3 4 2 1 1 3 5 7 9 9 10 12 16 19 18 18 17 17 19
4 4 10 14 12 12 11 7 12 18 13 4 2 2 1 2 2 3 3 2 1 2 3 2 2 4 3 3 3 4 5 5 7 4 4 6 3 3 11 10 8 13 12 6 6 3 3 2 1 5 7 3 3 7 6 6 7 5 4 5 5 2 1 2 2 2 1 1 2 2 2 3 3 1 1 3 6 7 9 9 10 15 18 19 18 17 17 20
5 4 8 11 11 9 5 8 15 15 5 1 3 2 2 1 1 3 4 3 3 4 3 2 3 3 2 2 3 3 4 4 5 4 3 6 5 3 9 13 10 10 8 4 6 6 3 2 2 3 5 5 5 4 4 5 7 6 5 5 5 3 1 0 2 1 2 1 1 0 1 3 4 2 1 2 5 7 9 10 10 14 17 18 18 17 16 21
8 4 7 11 10 6 7 10 11 6 2 3 3 2 1 1 0 2 3 3 2 3 4 3 2 3 2 2 2 3 3 2 4 4 2 4 6 4 9 16 13 8 5 3 4 4 2 1 2 3 3 3 3 3 3 3 4 5 7 5 4 3 3 2 1 1 0 1 2 1 1 2 5 3 1 0 4 6 7 9 10 13 16 17 17 15 16 21
11 7 7 9 7 6 9 8 5 3 4 3 2 2 1 1 1 2 3 3 2 1 3 3 1 2 3 2 1 1 2 2 2 3 2 3 4 5 9 14 12 8 6 4 3 1 1 1 2 2 1 0 1 1 2 1 2 3 5 6 5 3 4 3 2 2 1 1 1 2 1 2 6 5 2 1 4 6 7 8 9 12 15 16 16 14 15 22
16 13 13 10 5 6 7 5 2 2 3 2 2 3 2 3 3 3 2 3 3 1 2 2 1 1 2 2 1 2 3 2 1 2 2 2 4 7 10 11 10 9 7 3 4 3 1 2 1 0 0 1 2 2 2 1 1 2 3 5 5 4 4 3 2 2 1 2 0 2 2 1 6 6 3 0 5 6 7 8 9 11 15 16 15 13 15 22
11 10 15 15 10 9 9 8 8 5 2 3 3 2 2 3 3 4 4 3 3 2 1 1 2 2 2 1 2 3 4 3 2 1 1 3 4 6 9 10 11 10 8 5 4 3 1 1 1 1 2 1 1 1 0 1 3 2 1 3 4 4 3 1 1 1 2 2 2 3 1 3 6 7 3 2 4 4 5 7 8 10 14 16 14 12 14 20
4 3 7 12 15 17 15 13 13 9 3 3 3 1 0 2 1 3 4 3 3 3 3 2 1 1 2 2 2 2 3 3 2 1 2 4 3 4 7 7 10 12 11 10 8 3 3 2 1 1 1 0 1 1 0 3 3 2 3 4 1 2 1 1 2 2 1 3 4 6 4 1 5 6 3 2 3 3 5 6 6 9 13 14 12 11 12 18
4 2 1 3 9 14 13 10 10 9 4 3 2 1 2 2 1 1 1 2 2 2 3 3 2 1 1 2 2 1 2 3 2 1 4 4 2 4 6 1 6 13 13 12 10 3 2 1 2 1 1 2 3 4 4 4 4 5 5 4 2 2 2 4 4 3 3 3 4 5 6 7 6 5 3 4 4 4 5 5 6 9 12 12 11 10 12 18
4 4 5 4 3 4 5 5 7 9 6 3 2 1 1 2 2 2 2 2 2 1 1 2 3 2 1 2 1 1 2 2 2 1 2 3 3 5 4 2 3 11 12 9 9 5 1 1 2 2 4 6 7 8 6 5 5 6 7 7 6 4 6 8 8 6 6 6 4 1 5 8 8 5 4 5 5 5 6 6 6 10 12 11 10 10 12 17
9 8 7 6 5 5 5 5 9 11 7 3 2 1 1 3 3 1 1 1 1 1 1 1 1 2 3 3 2 1 1 2 2 1 2 2 3 3 3 1 1 8 11 7 6 5 0 1 1 2 5 7 7 6 6 5 4 5 7 10 9 8 9 10 10 10 10 10 9 6 7 11 10 8 7 7 6 6 6 6 7 10 11 11 10 10 13 16
9 7 8 11 11 8 8 7 7 7 3 2 1 1 2 3 3 2 2 2 2 1 2 2 2 3 4 4 3 2 2 3 4 3 2 1 2 1 2 1 1 6 9 5 3 4 1 1 1 1 4 4 3 3 4 4 3 5 8 10 9 7 7 8 9 9 9 10 11 10 12 12 10 7 7 7 6 6 7 8 9 10 11 10 10 10 13 16
9 9 13 14 9 3 4 5 3 2 1 0 1 3 3 4 4 3 2 2 2 1 2 2 2 2 4 4 4 4 5 5 7 6 3 3 4 3 2 2 3 5 6 4 2 4 2 1 1 1 3 2 1 3 5 4 4 6 10 12 11 7 5 6 6 8 10 8 6 6 9 9 5 7 8 7 6 7 8 9 10 12 12 11 11 11 13 15
12 13 12 9 5 1 2 3 1 1 1 1 3 4 4 4 5 5 2 2 3 3 2 3 2 1 2 3 3 4 3 4 6 8 9 10 11 9 8 7 6 5 3 2 3 2 2 1 1 2 3 2 2 5 6 5 5 5 5 9 13 11 8 7 7 9 12 9 6 6 7 4 3 6 7 7 7 7 9 10 10 13 14 13 12 12 13 16
Wind_Direction
8 6 5 6 4 2 356 343 325 320 319 320 324 329 335 339 341 343 345 348 350 351 352 350 345 342 342 341 341 335 335 345 12 65 15 7 3 339 314 319 323 323 317 316 321 325 317 297 273 245 228 208 210 207 194 189 181 178 195 219 219 220 213 199 192 185 213 178 144 113 15 94 83 106 105 91 123 128 191 219 256 241 245 250 239 243 286 308
3 4 4 6 5 3 2 356 343 329 321 319 318 321 326 331 336 339 341 347 350 350 351 349 345 343 342 343 341 334 338 1 73 19 343 348 1 340 311 324 324 321 321 322 321 324 313 293 264 234 220 207 205 194 191 187 184 192 206 213 221 219 200 187 197 185 168 184 146 125 20 72 80 81 88 81 75 65 140 193 238 294 290 290 287 276 277 283
2 3 2 2 359 356 357 357 355 348 338 331 323 320 318 319 329 334 340 349 351 350 350 347 344 344 344 344 340 337 348 46 60 359 331 330 353 353 326 319 328 332 325 323 330 323 310 296 254 224 218 215 201 186 190 183 186 205 210 216 223 202 176 160 200 199 179 187 151 141 18 68 76 64 57 41 62 69 48 48 57 21 355 327 306 284 278 273
2 2 359 357 352 351 352 353 357 356 351 346 337 328 319 315 319 327 342 351 350 349 348 346 345 348 347 346 347 347 348 68 29 357 340 324 338 357 347 334 344 346 334 329 341 331 316 294 256 219 219 218 194 186 192 182 183 197 206 230 205 172 170 134 178 216 237 203 151 144 2 66 54 56 62 14 27 72 50 42 36 12 359 344 324 298 284 274
1 360 357 355 353 352 352 356 359 356 353 351 345 338 331 323 316 326 347 351 348 346 347 351 352 352 352 353 359 358 340 224 14 357 344 326 325 348 350 346 354 354 346 339 346 337 319 288 253 207 215 212 187 192 192 181 185 183 192 265 93 165 174 114 123 188 229 239 138 64 320 56 34 61 60 17 7 41 36 23 11 354 346 343 339 331 289 280
1 358 357 357 357 356 358 4 3 359 354 350 346 341 338 335 333 344 350 348 346 345 351 360 358 357 2 5 8 12 16 10 357 349 344 336 319 325 335 354 3 359 348 333 334 328 319 283 234 197 207 212 192 194 174 172 196 205 170 79 60 154 152 111 106 117 129 156 91 358 349 48 36 67 45 30 16 7 1 358 3 3 360 349 347 354 320 304
357 356 359 0 3 5 9 12 7 1 355 353 355 353 354 3 10 2 350 346 345 346 356 1 0 6 10 13 13 25 37 5 344 339 341 342 326 317 309 327 17 5 1 332 299 301 313 286 192 168 186 199 197 203 112 156 199 225 148 114 82 77 102 110 106 95 88 103 98 29 346 30 15 2 38 28 12 3 7 14 21 29 32 28 19 7 345 330
356 359 4 8 15 18 19 16 9 5 6 12 19 22 26 28 19 358 347 345 347 349 354 351 360 10 10 16 14 24 27 355 336 332 334 337 333 325 307 285 112 60 65 94 73 159 132 60 133 159 184 156 141 192 133 158 188 211 131 118 112 88 93 110 113 98 85 86 103 92 345 24 23 23 56 25 14 22 27 25 30 37 41 41 39 29 14 355
0 7 14 22 27 25 22 17 16 21 28 36 38 36 32 19 2 350 347 348 351 349 348 348 3 10 7 13 12 19 9 350 334 329 330 329 331 333 318 294 218 77 72 96 82 80 92 62 98 155 151 109 112 135 222 205 175 149 126 118 113 92 82 109 117 109 99 75 92 100 21 25 22 52 66 20 19 33 26 21 27 33 37 42 44 39 33 19
4 13 26 33 32 27 25 25 32 39 40 40 33 26 15 1 353 350 354 356 354 348 349 357 14 16 11 11 15 20 357 349 341 332 326 328 326 324 324 303 279 81 79 92 79 64 57 50 76 122 108 109 114 70 359 258 104 101 120 107 99 92 64 60 106 123 143 114 94 93 46 9 4 39 30 3 23 49 46 45 42 38 41 45 51 50 49 40
7 19 33 37 35 31 32 38 43 42 37 31 24 17 8 3 6 11 15 11 1 352 353 14 30 22 22 23 26 13 354 353 350 339 327 327 323 306 311 308 294 68 89 78 75 60 43 41 72 119 109 125 126 87 64 30 80 107 139 119 105 105 61 29 64 115 154 181 205 132 62 11 11 38 338 346 22 55 59 61 61 62 57 54 59 59 58 52
14 27 38 37 38 37 41 46 43 39 35 30 27 21 15 24 36 39 36 30 26 22 21 43 43 31 38 37 29 9 358 0 355 348 339 331 324 310 304 306 304 301 97 78 75 61 37 35 53 97 96 137 143 121 89 48 96 140 163 140 128 127 59 16 3 4 127 89 189 172 126 33 32 12 337 358 29 54 59 59 57 61 61 64 68 69 68 59
24 38 44 39 39 43 48 46 40 42 42 39 36 30 31 47 55 51 48 45 41 39 43 55 50 39 45 39 22 11 4 4 2 357 352 345 337 319 299 286 305 295 154 91 76 59 28 26 33 73 88 140 136 113 106 67 133 161 173 151 140 137 53 8 346 307 141 47 107 175 158 58 51 355 351 16 30 48 55 53 53 57 60 66 69 69 67 59
36 47 50 45 43 45 48 43 43 52 53 51 49 46 47 55 57 51 50 50 44 41 42 48 49 40 42 33 13 10 7 8 12 7 356 348 348 337 280 256 245 239 142 99 81 55 9 11 23 74 67 89 113 120 120 98 121 148 150 156 147 137 68 15 5 355 90 54 147 189 132 74 56 7 4 25 33 47 54 51 52 55 55 58 59 59 58 51
45 53 53 51 47 44 46 43 51 64 65 63 60 57 54 53 49 41 42 45 42 41 39 43 51 41 40 25 6 7 11 12 14 12 360 348 354 359 318 232 201 165 135 104 75 9 5 12 32 49 16 83 151 154 129 115 109 122 162 157 141 127 108 45 24 15 21 57 29 197 131 91 65 15 10 34 47 54 55 49 48 49 49 50 50 49 48 45
50 53 54 54 49 45 44 45 61 76 77 71 66 63 59 55 49 43 43 41 43 42 37 34 35 48 43 17 4 7 13 12 10 11 5 353 350 353 351 204 181 160 140 127 124 321 1 30 46 37 20 142 175 158 129 122 128 86 192 142 128 132 126 122 41 15 351 40 43 62 110 91 62 20 23 47 58 57 52 45 43 44 43 44 44 43 40 38
53 53 52 51 49 46 43 47 68 87 84 72 67 65 62 58 52 49 48 47 49 43 36 32 25 115 33 8 2 1 4 10 12 11 10 1 346 354 11 138 165 145 132 143 166 295 36 41 35 39 45 101 212 179 149 132 137 134 107 106 77 110 115 114 90 5 351 65 77 72 90 79 58 37 36 51 63 61 53 43 41 41 40 40 40 40 38 35
54 54 51 48 46 44 45 50 64 87 89 69 60 57 57 58 52 46 44 45 44 40 33 26 25 80 350 356 355 354 359 11 15 14 13 7 3 15 38 105 143 136 129 138 95 31 66 52 27 62 60 82 89 226 174 126 126 125 118 121 94 88 86 76 85 348 350 68 82 78 80 62 54 47 43 52 64 63 55 46 42 38 39 38 37 37 34 34
53 53 51 47 45 42 44 52 58 68 79 44 23 14 36 55 51 43 39 39 40 41 29 10 18 39 322 345 353 356 6 18 17 17 18 17 30 44 65 106 127 125 126 138 58 31 59 76 60 72 58 56 43 20 105 96 98 104 99 106 108 98 81 70 74 356 341 63 66 70 73 60 52 46 40 50 61 59 51 48 41 34 35 34 33 33 32 34
52 54 51 47 45 41 42 49 58 57 41 25 12 18 33 33 36 34 32 35 37 37 30 12 14 15 348 350 359 3 14 25 21 19 20 23 52 72 73 99 109 85 71 55 59 50 70 81 71 63 34 12 9 16 77 98 100 101 100 93 97 99 84 71 61 18 303 71 51 63 74 64 54 49 37 46 56 52 46 49 42 36 36 32 30 29 31 32
50 52 49 48 45 42 42 44 51 49 40 32 33 52 51 35 33 13 12 30 33 28 24 18 16 13 6 2 4 6 10 19 22 23 26 34 62 79 60 78 94 71 49 332 86 92 86 79 63 25 349 338 342 346 64 99 107 104 110 105 97 96 91 72 44 20 292 101 74 75 75 64 55 53 41 45 53 49 44 49 46 42 40 35 31 28 27 29
47 48 46 45 42 43 43 43 47 41 32 17 27 47 52 48 53 24 0 18 26 23 20 17 16 13 11 10 8 11 9 8 14 19 26 43 56 58 48 65 81 69 54 128 122 97 81 73 34 4 332 330 21 25 73 80 91 103 115 117 106 100 109 95 54 32 35 103 105 86 77 67 60 58 50 50 53 50 46 48 48 44 41 36 31 27 24 27
42 43 42 39 38 41 39 40 42 32 10 7 26 39 43 38 33 23 21 328 10 19 17 14 13 9 9 8 4 12 21 15 4 6 17 33 43 38 38 61 75 69 57 75 94 88 82 57 357 349 313 38 63 60 82 80 64 71 93 111 115 111 119 103 78 51 44 83 109 94 84 71 61 56 54 53 50 48 43 43 46 43 41 38 33 30 26 25
38 40 40 35 33 36 37 37 34 31 29 28 31 33 30 23 21 19 20 327 353 13 11 11 11 8 6 2 3 9 20 23 9 4 15 22 22 27 29 33 62 69 57 66 75 77 68 24 335 358 64 73 74 54 54 82 71 54 47 64 94 84 52 80 105 106 79 71 91 95 86 66 52 49 51 45 42 42 35 35 38 35 36 36 34 33 30 27
35 37 38 33 30 31 34 35 32 34 35 32 27 23 19 11 10 16 14 83 15 358 4 9 7 8 7 5 12 10 0 25 17 8 18 25 18 20 23 7 38 66 45 56 70 70 47 4 325 70 73 66 76 55 15 14 98 73 39 27 41 67 72 95 137 161 132 112 28 70 91 75 52 48 46 36 40 40 34 35 32 28 30 31 31 31 28 28
36 36 37 35 31 29 32 33 29 27 22 17 10 6 7 359 359 21 16 100 40 352 354 1 359 6 9 8 15 17 301 21 17 20 29 35 33 35 35 11 31 63 24 46 73 73 32 7 353 56 68 66 70 67 14 355 92 88 32 9 356 346 101 122 170 180 141 123 52 1 109 109 70 46 38 33 44 41 35 35 30 27 28 28 30 29 27 27
39 36 37 36 31 28 32 28 17 10 2 356 351 350 353 349 353 9 346 103 37 352 340 352 355 3 3 9 21 33 60 346 4 30 33 33 45 55 61 34 38 55 325 243 76 42 359 20 28 33 52 65 59 54 8 346 63 76 2 347 5 39 72 92 135 118 106 119 85 31 60 104 74 41 32 29 42 40 33 32 27 27 27 27 29 28 27 27
38 34 33 29 24 20 20 15 4 360 356 345 341 345 344 348 11 360 21 87 10 340 336 345 347 360 3 16 29 35 28 356 356 28 31 36 47 51 56 37 39 47 20 42 92 53 6 30 29 17 38 58 35 9 348 334 55 64 348 358 50 54 63 69 99 99 68 132 94 29 16 88 67 28 25 29 38 36 30 28 25 25 25 25 26 25 26 26
36 34 30 24 20 16 11 5 1 358 354 346 346 358 354 8 64 16 49 84 332 330 340 351 354 355 357 12 26 21 21 21 7 17 33 44 43 45 62 28 26 50 42 58 84 71 40 42 30 23 34 31 352 347 345 347 38 57 318 78 89 64 66 69 80 100 69 68 70 9 348 96 74 26 16 27 33 28 24 27 26 25 26 25 24 23 24 24
35 33 29 25 20 18 16 6 2 0 357 359 22 39 33 40 52 49 39 25 340 341 334 352 359 344 347 360 15 8 10 18 7 12 30 37 36 37 41 16 8 38 62 64 76 89 81 62 50 39 18 324 302 321 328 339 18 188 242 121 103 67 62 74 52 76 84 65 48 18 17 95 93 41 23 29 26 16 17 23 23 24 26 26 25 23 23 22
32 31 28 25 20 17 17 11 8 4 2 12 58 50 39 44 39 94 52 349 308 346 340 347 349 343 352 5 5 356 0 14 8 12 24 26 32 31 25 13 359 8 66 60 68 78 61 48 51 37 14 1 307 265 344 346 11 170 191 121 112 89 80 98 61 40 83 81 59 43 54 67 81 64 31 32 28 19 22 21 19 21 24 25 24 23 23 22
30 28 26 23 20 16 13 9 7 7 9 20 34 15 34 64 36 69 346 327 318 348 351 336 337 341 340 343 7 355 345 6 6 10 19 16 34 36 35 28 357 11 52 29 36 48 53 48 28 10 21 14 353 266 68 40 20 44 142 140 135 127 109 94 60 50 78 86 71 25 57 66 75 77 38 30 30 26 27 24 20 20 21 23 22 22 24 22
30 28 24 18 16 15 14 8 5 12 18 19 35 47 64 99 46 30 296 335 10 344 329 309 321 326 324 343 10 350 330 12 5 1 7 16 43 44 41 32 13 11 31 14 26 21 76 68 18 10 15 6 4 33 52 33 19 28 38 335 159 121 109 103 72 76 89 89 78 38 70 102 101 66 29 29 35 29 25 24 22 20 20 22 22 22 23 23
33 30 23 15 10 9 12 10 8 14 16 20 43 59 57 70 47 349 304 319 309 309 314 315 317 319 354 30 11 345 358 53 11 358 7 24 36 23 22 26 17 12 7 25 37 10 53 68 11 9 353 351 11 36 359 319 11 34 5 3 61 54 55 98 98 100 102 100 99 52 64 114 118 81 28 26 38 26 19 20 23 25 25 25 24 23 23 23
35 30 24 15 6 6 9 12 19 21 26 52 65 57 60 77 276 284 348 313 293 315 315 316 321 328 17 26 7 6 18 27 7 7 29 36 37 18 7 12 14 12 360 20 27 357 53 58 356 347 328 341 5 15 331 262 20 51 324 3 56 13 345 79 72 57 95 106 91 56 63 96 117 110 86 60 38 24 20 24 26 28 28 27 26 24 23 21
36 31 27 17 11 15 10 11 25 28 55 82 74 50 58 68 278 203 354 326 316 321 310 308 342 358 8 346 349 9 5 1 3 5 38 44 39 22 7 359 15 18 12 21 34 345 57 64 348 336 1 15 2 346 14 27 320 61 40 38 41 328 307 83 81 37 57 106 78 63 100 110 151 125 68 48 40 27 23 25 25 25 24 24 25 23 22 20
41 35 29 23 25 22 12 24 42 60 78 80 74 63 87 315 275 232 330 331 303 308 317 358 17 355 352 332 346 357 349 343 3 7 23 24 24 17 5 351 9 16 10 3 42 26 21 82 29 358 4 8 352 328 36 36 17 8 61 40 346 233 271 34 87 82 75 96 78 70 101 112 197 164 38 24 25 21 18 18 19 21 19 19 19 19 18 17
58 44 31 25 23 22 24 39 55 103 86 74 76 100 114 271 271 276 313 330 292 309 4 40 16 352 354 355 349 348 346 352 2 7 19 12 24 21 8 354 349 4 5 350 6 31 355 72 76 17 346 344 349 345 43 35 32 60 93 2 317 101 83 29 64 87 88 104 101 113 118 119 211 3 3 6 16 15 13 13 14 16 15 14 13 12 12 11
69 54 33 22 16 26 37 44 76 99 84 72 89 105 89 276 301 305 324 351 284 311 29 37 11 13 18 9 354 346 355 11 6 1 19 8 13 28 19 2 332 350 1 5 21 359 322 33 94 14 350 312 349 17 29 18 26 62 106 20 14 39 42 41 47 4 99 125 137 158 177 177 112 18 337 359 10 12 13 11 13 13 11 9 7 5 7 7
89 75 32 18 14 27 37 59 79 76 72 63 89 102 224 257 331 345 17 51 359 10 43 40 16 19 9 2 14 3 1 16 14 20 33 9 5 50 25 8 334 340 348 6 32 11 309 1 74 7 358 340 35 35 21 8 13 21 27 25 26 15 311 74 67 4 353 128 145 158 186 149 122 203 296 2 5 13 16 8 10 11 8 6 4 2 4 5
96 84 20 17 27 35 61 79 63 59 69 92 75 110 202 208 349 11 47 73 67 59 78 102 62 42 9 355 26 14 354 15 20 26 49 22 24 55 13 1 344 332 333 352 20 15 355 360 35 16 18 52 59 30 5 3 10 26 37 20 12 8 295 111 90 64 341 353 118 195 285 138 141 177 230 12 6 14 15 8 7 8 6 3 360 360 2 1
85 77 9 17 33 50 87 74 48 46 97 83 84 148 170 152 350 24 52 73 74 67 83 99 68 46 46 15 17 5 349 11 13 14 43 19 19 23 357 359 358 344 346 4 358 9 24 355 43 46 37 45 30 25 42 352 346 42 53 25 6 14 356 359 94 133 138 63 96 245 300 139 146 150 186 330 17 17 14 9 4 2 2 359 356 357 359 358
74 70 28 30 55 80 89 80 41 42 78 80 123 133 114 108 54 42 44 41 44 60 66 72 47 44 47 14 333 347 357 357 356 3 6 357 15 11 354 4 13 8 9 9 342 17 83 5 35 68 73 185 226 150 90 348 305 53 48 30 29 29 15 16 31 26 182 162 146 223 247 157 161 167 212 248 23 17 8 5 360 357 356 354 353 354 353 355
78 67 45 41 81 101 86 100 122 81 102 121 90 82 90 78 50 41 35 18 24 56 69 54 42 40 24 358 9 11 356 356 359 358 354 345 357 359 3 22 34 22 19 8 326 325 22 11 346 290 116 128 179 195 163 128 13 33 43 34 36 50 58 68 50 7 237 197 159 244 266 124 162 185 214 6 25 10 358 355 351 351 351 349 349 348 348 351
85 68 50 49 79 106 102 125 137 127 140 125 84 49 57 69 55 54 61 46 40 58 79 52 38 36 15 5 37 16 2 11 11 352 336 332 333 347 4 33 47 25 10 8 343 329 58 39 322 7 57 72 40 22 64 359 350 11 33 8 24 56 67 87 111 278 232 160 159 227 252 96 154 193 224 23 16 349 340 341 338 342 345 343 340 338 343 348
96 77 49 49 68 86 95 115 126 124 143 140 109 94 121 101 84 66 70 66 59 66 67 51 31 40 30 24 29 11 351 346 339 328 334 331 332 342 349 28 49 26 8 11 21 60 120 69 33 51 72 50 2 23 340 338 321 279 298 323 40 99 52 169 178 246 196 144 205 233 246 237 196 203 233 335 330 311 319 320 321 331 335 334 330 325 334 344
95 72 68 61 67 77 86 102 113 116 134 154 133 153 156 141 133 100 95 78 73 81 69 53 44 40 40 41 34 348 328 338 335 333 339 329 305 323 328 12 47 26 18 13 18 50 154 95 87 135 265 263 281 278 271 293 276 254 274 287 230 195 212 203 212 222 152 162 238 228 216 239 237 209 230 284 283 285 295 292 302 320 325 324 321 315 327 339
105 106 111 118 106 81 81 99 115 112 105 103 108 109 117 143 165 155 135 114 94 104 135 83 60 48 78 111 92 327 316 339 338 277 310 330 321 324 340 143 74 28 26 17 17 36 133 154 152 212 272 271 268 272 268 263 257 249 252 260 258 233 207 214 226 219 195 217 264 172 187 229 241 231 248 265 260 269 278 275 290 310 316 318 317 314 324 333
118 120 108 105 113 114 111 123 124 111 91 74 94 107 137 160 174 162 124 158 130 100 232 204 150 131 140 149 152 258 268 292 325 294 254 321 322 310 329 176 114 27 24 23 19 17 340 140 129 229 283 278 262 256 243 227 236 252 249 255 259 242 220 224 231 224 218 237 263 276 259 257 256 253 254 251 248 260 266 265 283 304 314 316 312 309 315 325
130 132 125 112 102 100 111 123 125 109 80 39 79 124 160 165 174 183 200 203 174 168 213 206 170 148 143 156 185 246 253 252 284 282 229 262 302 290 322 319 351 7 13 29 7 338 328 81 61 305 292 286 267 257 243 220 221 247 252 252 250 244 234 232 234 229 226 242 259 266 269 268 258 239 230 229 235 251 258 267 286 304 313 309 297 297 307 317
129 131 133 121 99 80 117 123 126 116 92 355 145 156 178 196 191 167 173 227 232 220 204 181 166 156 150 160 199 248 258 249 256 262 242 248 276 277 281 319 344 345 357 24 349 327 356 51 49 351 296 286 293 279 272 275 265 257 257 246 226 213 214 212 213 206 204 216 230 236 255 263 229 185 194 211 231 254 267 278 292 305 309 301 288 289 299 309
128 133 137 123 95 77 155 132 133 138 135 153 150 158 184 201 188 170 163 231 236 232 202 170 159 195 201 211 230 232 234 238 248 263 268 266 270 270 263 275 301 303 303 350 347 337 6 5 3 337 301 292 307 294 287 289 274 257 257 228 203 198 210 212 211 207 202 202 198 213 240 247 162 171 199 220 235 254 272 282 292 302 302 292 282 281 289 302